Regional Weather Roundup
Issued by NWS

Home | Current Version | Previous Version | Text Only | Print | Product List | Glossary On
Versions: 1 2 3 4 5 6 7 8 9 10 11 12 13 14 15 16 17 18 19 20 21 22 23 24 25 26 27 28 29 30 31 32 33 34 35 36 37 38 39 40 41 42 43 44 45 46 47 48 49 50
000
ASUS43 KMPX 202201
RWRMN
WEATHER ROUNDUP FOR MINNESOTA
NATIONAL WEATHER SERVICE TWIN CITIES/CHANHASSEN MN
500 PM CDT SUN APR 20 2014


NOTE: "FAIR" INDICATES FEW OR NO CLOUDS BELOW 12,000 FEET WITH NO
SIGNIFICANT WEATHER AND/OR OBSTRUCTIONS TO VISIBILITY. N/A MEANS
CURRENT SKY AND/OR WEATHER CONDITIONS ARE NOT AVAILABLE.

MNZ060>063-068>070-202300-
   Twin Cities Metro

CITY           SKY/WX    TMP DP  RH WIND       PRES   REMARKS
TWIN CITIES    MOSUNNY   73  42  32 VRB3      29.95F
ST PAUL        SUNNY     74  47  38 S8        29.95F
CRYSTAL        SUNNY     75  33  21 CALM      29.94F
EDEN PRAIRIE   SUNNY     76  39  26 SE8       29.94F
LAKEVILLE      SUNNY     70  54  56 S3        29.96F
SOUTH ST PAUL  SUNNY     74  47  38 SE7       29.95F
LAKE ELMO      FAIR      73  43  33 E3        29.97S
$$
MNZ001>005-007-008-013>017-022>024-027-028-202300-
   Northwest Minnesota

CITY           SKY/WX    TMP DP  RH WIND       PRES   REMARKS
BEMIDJI        MOSUNNY   70  29  21 W10       29.95F
HALLOCK          N/A     61  46  59 SE12      29.91F
ROSEAU         CLOUDY    61  45  55 E3        29.95F HAZE
WARROAD        PTSUNNY   50  39  66 E7        29.97F
THIEF RVR FALL PTSUNNY   66  37  34 S8        29.95F
CROOKSTON      PTSUNNY   70  37  30 S10G16    29.93F
FOSSTON        PTSUNNY   70  34  26 S7        29.95F
DETROIT LAKES  SUNNY     70  30  23 S10       29.96F
MOORHEAD       MOSUNNY   73  16  11 SE12      29.93S
PARK RAPIDS    SUNNY     70  27  20 VRB5      29.95F
$$
MNZ006-009>011-018-025>026-202300-
   North Central Minnesota

CITY           SKY/WX    TMP DP  RH WIND       PRES   REMARKS
BAUDETTE       MOSUNNY   61  37  41 E5        29.97F
FLAG ISLAND    PTSUNNY   46  34  61 SE7       29.96F
INTL FALLS     SUNNY     61  34  36 CALM      29.98F
WASKISH        MOSUNNY   61  36  39 NW3       29.98F
BIG FORK       SUNNY     66  28  24 CALM      29.98F
LONGVILLE      SUNNY     72  28  20 CALM      29.97S
GRAND RAPIDS   SUNNY     66  30  26 CALM      29.99S
CRANE LAKE     MOSUNNY   63  32  31 N5        30.01F
ORR            MOSUNNY   63  28  27 W3        29.97S
COOK           MOSUNNY   64  30  27 W3        29.99F
$$
MNZ012-019>021-037-202300-
   Northeast Minnesota

CITY           SKY/WX    TMP DP  RH WIND       PRES   REMARKS
DULUTH         SUNNY     65  28  24 NW7       29.99F
ELY            SUNNY     63  28  27 W9G17     30.00F
HIBBING        SUNNY     67  30  25 NW8       29.98F
EVELETH        SUNNY     63  28  27 NW6       30.00S
DULUTH HARBOR  SUNNY     43  36  75 CALM      30.00S
TWO HARBORS    SUNNY     61  37  41 SE6       29.97S
SILVER BAY     SUNNY     57  39  51 S3        29.98S
GRAND MARAIS     N/A     44  35  70 W10       30.00S
G MARAIS ARPRT SUNNY     57  27  30 W9G16     30.01S
$$
MNZ029>031-032-039>041-046>048-054>057-064-202300-
   West Central Minnesota

CITY           SKY/WX    TMP DP  RH WIND       PRES   REMARKS
FERGUS FALLS   SUNNY     73  21  14 S5        29.90F
WHEATON        MOSUNNY   77  36  22 S9        29.94S
MORRIS         SUNNY     75  36  23 S7        29.93S
ALEXANDRIA     SUNNY     71  32  23 CALM      29.96F
ELBOW LAKE     FAIR      72  33  23 S9        29.94F
WADENA         SUNNY     70  34  26 CALM      29.95F
GLENWOOD       SUNNY     72  30  21 CALM      29.96F
APPLETON       SUNNY     75  30  19 SE9       29.93S
BENSON         SUNNY     75  34  22 S8        29.94F
ORTONVILLE     SUNNY     73  30  20 SE7       29.93S
MADISON        SUNNY     77  34  20 SE10      29.93F
WILLMAR        FAIR      73  36  25 SE9       29.96F
$$
MNZ033>034-036-042>043-049>051-058-059-202300-
   Central Minnesota

CITY           SKY/WX    TMP DP  RH WIND       PRES   REMARKS
ST CLOUD       SUNNY     73  30  20 CALM      29.96F
SAUK CENTRE    FAIR      71  34  25 CALM      29.96F
PAYNESVILLE    SUNNY     71  31  23 CALM      29.96F
AITKIN         SUNNY     73  16  11 CALM      29.96S
PINE RIVER     SUNNY     72  36  26 SW7       29.99F
BRAINERD       SUNNY     76  21  12 NE6       29.96F
STAPLES        SUNNY     70  25  18 W6        29.96S
LONG PRAIRIE   FAIR      70  34  26 SW5       29.97S
LITTLE FALLS   SUNNY     70  28  21 CALM      29.97S
LITCHFIELD     SUNNY     73  36  25 E3        29.96F HAZE
BUFFALO        SUNNY     73  33  23 N6        29.96F
MAPLE LAKE     SUNNY     73  36  26 CALM      29.97F
$$
MNZ037-044-045-052-053-202300-
   East Central Minnesota

CITY           SKY/WX    TMP DP  RH WIND       PRES   REMARKS
PRINCETON      SUNNY     73  36  25 N5        29.97F
MORA           SUNNY     70  34  26 CALM      29.99F
CAMBRIDGE      SUNNY     73  46  38 CALM      29.96S
RUSH CITY      SUNNY     68  33  27 CALM      29.98F
HINCKLEY       FAIR      70  36  28 CALM      29.98F
CLOQUET        SUNNY     66  23  19 NW9       29.98F
MCGREGOR       SUNNY     70  32  24 NW6       29.98F
$$
MNZ071>073-080-081-089-090-097-098-202300-
   Southwest Minnesota

CITY           SKY/WX    TMP DP  RH WIND       PRES   REMARKS
MONTEVIDEO     SUNNY     75  36  23 SE10      29.94F
GRANITE FALLS  SUNNY     75  35  23 E8        29.94F
CANBY          SUNNY     75  36  23 SE10      29.93F
MARSHALL       SUNNY     75  34  22 SE9       29.92F
REDWOOD FALLS  SUNNY     76  34  21 SE10      29.92F
OLIVIA         SUNNY     73  41  31 E7        29.94F
PIPESTONE      SUNNY     77  39  25 SE8       29.91F
WINDOM         SUNNY     77  46  33 SE6       29.92F
WORTHINGTON    MOSUNNY   77  46  33 S6        29.94S
JACKSON        MOSUNNY   77  48  36 S7        29.92F
TRACY          SUNNY     77  39  25 E3        29.92F
SLAYTON        SUNNY     76  42  30 SE9       29.93S
$$
MNZ065>067-074>077-082>085-091>093-202300-
   South Central Minnesota

CITY           SKY/WX    TMP DP  RH WIND       PRES   REMARKS
MANKATO        SUNNY     72  54  53 SE6       29.95F
NEW ULM        SUNNY     73  52  46 E9        29.93F
ST JAMES       SUNNY     75  50  41 SE6       29.93F
FAIRMONT       MOSUNNY   75  52  43 S7        29.94F
GLENCOE        SUNNY     76  31  19 E6        29.95S
FARIBAULT      PTSUNNY   72  50  46 S5        29.97F
OWATONNA       MOSUNNY   70  54  56 S5        29.97F
WASECA         MOSUNNY   73  59  60 SW6       29.98F
ALBERT LEA     MOSUNNY   70  57  64 E5        29.96F
$$
MNZ078>079-086>088-094>096-202300-
   Southeast Minnesota

CITY           SKY/WX    TMP DP  RH WIND       PRES   REMARKS
ROCHESTER      PTSUNNY   67  56  67 SW9       29.99F
RED WING       SUNNY     72  52  49 S3        29.96F
STANTON        SUNNY     71  53  52 SW3       29.95F
DODGE CENTER   PTSUNNY   70  55  60 S3        29.99F
WINONA           N/A    N/A N/A N/A MISG        N/A
AUSTIN         MOSUNNY   66  55  68 SE3       29.98F
PRESTON        MOSUNNY   66  54  64 S5        30.01F
$$
ABBREVIATIONS USED IN REMARKS
   TC - TEMPERATURES IN CELSIUS
  WCI - WIND CHILL INDEX
   HX - HEAT INDEX
  VSB - VISIBILITY
$$


USA.gov is the U.S. government's official web portal to all federal, state and local government web resources and services.